DW1289 Weather Reports


time (UTC)temp
F
wind
direction
speed
knots
gust
knots
rain 1hr
in
rain 24hr
in
rain mn
in
humidity
%
barometer
mb
20260901211016 96 248 1.7 5.2 0.00 0.00 0.00 49 1016.9
20260901210016 96 248 2.6 8.7 0.00 0.00 0.00 48 1017.0
20260901205016 96 248 3.5 7.8 0.00 0.00 0.00 47 1017.1
20260901204016 96 248 3.5 7.8 0.00 0.00 0.00 47 1017.2
20260901203016 96 248 1.7 6.1 0.00 0.00 0.00 50 1017.2
20260901202036 97 248 3.5 7.0 0.00 0.00 0.00 48 1017.5
20260901201016 97 248 1.7 6.1 0.00 0.00 0.00 49 1017.5
20260901200016 97 248 3.5 8.7 0.00 0.00 0.00 50 1017.5
20260901195056 96 248 3.5 9.6 0.00 0.00 0.00 50 1017.6
20260901194016 96 248 3.5 8.7 0.00 0.00 0.00 50 1017.7
20260901193016 96 248 3.5 7.0 0.00 0.00 0.00 54 1017.7
20260901192016 96 248 3.5 7.0 0.00 0.00 0.00 51 1017.8
20260901191016 96 248 3.5 7.8 0.00 0.00 0.00 48 1018.0
20260901190016 96 248 2.6 7.8 0.00 0.00 0.00 51 1018.0
20260901185016 96 248 2.6 7.8 0.00 0.00 0.00 51 1018.2
20260901184016 96 248 2.6 7.0 0.00 0.00 0.00 52 1018.3
20260901183016 96 270 2.6 11.3 0.00 0.00 0.00 48 1018.5
20260901182016 96 248 3.5 9.6 0.00 0.00 0.00 53 1018.6
20260901181016 95 248 4.3 7.8 0.00 0.00 0.00 51 1018.6
20260901180016 95 248 5.2 10.4 0.00 0.00 0.00 51 1018.7
20260901175016 95 225 2.6 7.8 0.00 0.00 0.00 52 1018.7
20260901174017 96 225 3.5 8.7 0.00 0.00 0.00 55 1018.9
20260901173036 94 248 4.3 10.4 0.00 0.00 0.00 53 1019.0
20260901172016 94 248 2.6 8.7 0.00 0.00 0.00 54 1019.1
20260901171016 96 248 3.5 7.8 0.00 0.00 0.00 58 1019.1
20260901170016 96 248 3.5 7.8 0.00 0.00 0.00 56 1019.2
20260901165016 95 248 2.6 7.8 0.00 0.00 0.00 56 1019.2
20260901164016 95 248 4.3 8.7 0.00 0.00 0.00 58 1019.3
20260901163016 95 248 4.3 8.7 0.00 0.00 0.00 58 1019.3
20260901162016 94 248 2.6 7.8 0.00 0.00 0.00 59 1019.4
20260901161036 93 248 3.5 9.6 0.00 0.00 0.00 59 1019.5
20260901160016 93 248 4.3 8.7 0.00 0.00 0.00 61 1019.5
20260901155016 92 225 4.3 8.7 0.00 0.00 0.00 60 1019.6
20260901154016 92 248 3.5 8.7 0.00 0.00 0.00 62 1019.6
20260901153036 91 248 3.5 8.7 0.00 0.00 0.00 62 1019.7
20260901152016 91 248 3.5 7.8 0.00 0.00 0.00 64 1019.7
20260901151016 90 248 1.7 5.2 0.00 0.00 0.00 67 1019.6
20260901150016 89 248 1.7 7.0 0.00 0.00 0.00 67 1019.7
20260901145016 88 248 1.7 4.3 0.00 0.00 0.00 69 1019.7
20260901144016 87 225 1.7 6.1 0.00 0.00 0.00 70 1019.7
20260901143016 86 248 1.7 5.2 0.00 0.00 0.00 72 1019.7
20260901142016 85 248 1.7 4.3 0.00 0.00 0.00 73 1019.8
20260901141016 84 248 1.7 5.2 0.00 0.00 0.00 75 1019.8
20260901140016 82 248 1.7 6.1 0.00 0.00 0.00 78 1019.9
20260901135016 81 180 0.9 3.5 0.00 0.00 0.00 81 1019.8
20260901134036 79 203 0.9 3.5 0.00 0.00 0.00 84 1019.8
20260901133016 77 0.0 4.3 0.00 0.00 0.00 87 1019.9
20260901132016 76 0.0 0.0 0.00 0.00 0.00 91 1019.7
20260901131016 75 0.0 0.0 0.00 0.00 0.00 92 1019.9
20260901130036 74 0.0 0.0 0.00 0.00 0.00 93 1019.9
20260901125016 73 0.0 0.0 0.00 0.00 0.00 93 1019.8
20260901124016 72 0.0 0.0 0.00 0.00 0.00 93 1019.8
20260901123016 72 0.0 0.0 0.00 0.00 0.00 93 1019.8
20260901122016 72 0.0 0.0 0.00 0.00 0.00 93 1019.7
20260901121036 71 0.0 0.0 0.00 0.00 0.00 93 1019.7
20260901120036 71 0.0 0.0 0.00 0.00 0.00 92 1019.7
20260901115016 71 0.0 0.0 0.00 0.00 0.00 92 1019.5
20260901114016 71 0.0 0.0 0.00 0.00 0.00 92 1019.5
20260901113016 71 0.0 0.0 0.00 0.00 0.00 92 1019.4
20260901112016 71 0.0 0.0 0.00 0.00 0.00 92 1019.1
20260901111016 71 0.0 0.0 0.00 0.00 0.00 92 1019.0
20260901110016 72 0.0 0.0 0.00 0.00 0.00 92 1018.8
20260901105016 72 0.0 0.0 0.00 0.00 0.00 92 1018.7
20260901104016 72 0.0 0.0 0.00 0.00 0.00 92 1018.6
20260901103036 72 0.0 0.0 0.00 0.00 0.00 91 1018.6
20260901102016 72 0.0 0.0 0.00 0.00 0.00 91 1018.5
20260901101016 72 0.0 0.0 0.00 0.00 0.00 90 1018.4
20260901100016 72 0.0 0.0 0.00 0.00 0.00 90 1018.3
20260901095016 72 0.0 0.0 0.00 0.00 0.00 90 1018.2
20260901094036 72 0.0 0.0 0.00 0.00 0.00 90 1018.1
20260901093016 73 0.0 0.0 0.00 0.00 0.00 90 1018.1
20260901092016 73 0.0 0.0 0.00 0.00 0.00 90 1018.0
20260901091016 73 0.0 0.0 0.00 0.00 0.00 90 1018.0
20260901090016 73 0.0 0.0 0.00 0.00 0.00 90 1017.8
20260901085016 73 0.0 0.0 0.00 0.00 0.00 90 1017.7
20260901084016 73 0.0 0.0 0.00 0.00 0.00 90 1017.6
20260901083036 73 0.0 0.0 0.00 0.00 0.00 89 1017.6
20260901082016 74 0.0 0.0 0.00 0.00 0.00 89 1017.6
20260901081036 74 0.0 0.0 0.00 0.00 0.00 89 1017.7
20260901080036 74 0.0 0.0 0.00 0.00 0.00 89 1017.6
20260901075016 74 0.0 0.0 0.00 0.00 0.00 90 1017.7
20260901074036 74 0.0 0.0 0.00 0.00 0.00 90 1017.7
20260901073016 74 0.0 0.0 0.00 0.00 0.00 90 1017.7
20260901072016 74 0.0 0.0 0.00 0.00 0.00 90 1017.8
20260901071016 74 0.0 0.0 0.00 0.00 0.00 90 1017.8
20260901070016 74 0.0 0.0 0.00 0.00 0.00 90 1017.9
20260901065016 74 0.0 0.0 0.00 0.00 0.00 90 1017.9
20260901064016 74 0.0 0.0 0.00 0.00 0.00 90 1018.0
20260901063016 74 0.0 0.0 0.00 0.00 0.00 90 1018.0
20260901062016 75 0.0 0.0 0.00 0.00 0.00 89 1018.1
20260901061016 75 0.0 0.0 0.00 0.00 0.00 89 1018.2
20260901060016 75 0.0 0.0 0.00 0.00 0.00 89 1018.3
20260901055016 75 0.0 0.0 0.00 0.00 0.00 88 1018.3
20260901054016 75 0.0 0.0 0.00 0.00 0.00 88 1018.4
20260901053016 76 0.0 0.0 0.00 0.00 0.00 88 1018.4
20260901052016 76 0.0 0.0 0.00 0.00 0.00 88 1018.5
20260901051016 76 0.0 0.0 0.00 0.00 0.00 88 1018.5
20260901050016 76 0.0 0.0 0.00 0.00 0.00 87 1018.3
20260901045016 76 0.0 0.0 0.00 0.00 0.00 87 1018.3
20260901044016 77 0.0 0.0 0.00 0.00 0.00 87 1018.3
20260901043036 77 0.0 0.0 0.00 0.00 0.00 86 1018.2
20260901042016 77 0.0 0.0 0.00 0.00 0.00 85 1018.3
20260901041016 77 0.0 0.0 0.00 0.00 0.00 85 1018.2
20260901040016 77 0.0 0.0 0.00 0.00 0.00 85 1018.4
20260901035017 78 0.0 0.0 0.00 0.00 0.00 84 1018.2
20260901034016 78 0.0 0.0 0.00 0.00 0.00 84 1018.1
20260901033016 78 0.0 0.0 0.00 0.00 0.00 83 1018.2
20260901032016 78 0.0 0.0 0.00 0.00 0.00 82 1018.0
20260901031016 79 0.0 0.0 0.00 0.00 0.00 81 1018.0
20260901030016 79 0.0 0.0 0.00 0.00 0.00 81 1018.1
20260901025016 79 0.0 0.0 0.00 0.00 0.00 80 1018.0
20260901024016 80 0.0 0.0 0.00 0.00 0.00 79 1017.8
20260901023016 80 0.0 0.0 0.00 0.00 0.00 78 1017.8
20260901022056 80 0.0 0.0 0.00 0.00 0.00 78 1017.6
20260901021036 81 0.0 0.0 0.00 0.00 0.00 76 1017.6
20260901020016 81 0.0 0.0 0.00 0.00 0.00 76 1017.6
20260901015016 82 0.0 0.0 0.00 0.00 0.00 75 1017.4
20260901014016 82 0.0 0.0 0.00 0.00 0.00 75 1017.5
20260901013036 82 0.0 0.0 0.00 0.00 0.00 75 1017.4
20260901012016 82 0.0 0.0 0.00 0.00 0.00 75 1017.3
20260901011016 82 0.0 0.0 0.00 0.00 0.00 75 1017.2
20260901010116 83 0.0 0.0 0.00 0.00 0.00 75 1017.1
20260901005016 83 0.0 0.0 0.00 0.00 0.00 73 1017.1
20260901004016 84 0.0 0.0 0.00 0.00 0.00 71 1017.0
20260901003016 85 0.0 0.0 0.00 0.00 0.00 68 1016.9
20260901002016 86 0.0 0.0 0.00 0.00 0.00 65 1016.9
20260901001016 88 0.0 0.0 0.00 0.00 0.00 63 1016.9
20260901000016 89 0.0 2.6 0.00 0.00 0.00 60 1016.9
20260831235016 90 248 1.7 3.5 0.00 0.00 0.00 58 1016.9
20260831234016 90 248 1.7 3.5 0.00 0.00 0.00 56 1016.9
20260831233016 91 248 1.7 6.1 0.00 0.00 0.00 55 1016.9
20260831232036 91 225 2.6 6.1 0.00 0.00 0.00 54 1016.9
20260831231016 92 248 2.6 5.2 0.00 0.00 0.00 54 1016.9
20260831230036 92 248 1.7 6.1 0.00 0.00 0.00 54 1016.9
20260831225036 92 248 3.5 7.8 0.00 0.00 0.00 53 1017.0
20260831224016 92 248 3.5 8.7 0.00 0.00 0.00 53 1017.1
20260831223056 92 248 1.7 4.3 0.00 0.00 0.00 54 1017.2
20260831222016 92 248 2.6 7.0 0.00 0.00 0.00 54 1017.4
20260831221016 93 248 2.6 6.1 0.00 0.00 0.00 53 1017.6
20260831220016 93 248 2.6 5.2 0.00 0.00 0.00 53 1017.7
20260831215016 93 248 2.6 6.1 0.00 0.00 0.00 55 1017.8
20260831214016 93 248 2.6 7.0 0.00 0.00 0.00 55 1017.8
20260831213016 93 248 2.6 6.1 0.00 0.00 0.00 55 1017.9
20260831212016 93 270 1.7 4.3 0.00 0.00 0.00 54 1017.9